User: anonymous   Login
Location: Columbia
(38.9520°N, 92.3340°W)
Time: 19:45:19
(UTC-06:00)
Language:

Cosmos 1633 - Orbit

View from above orbital plane
View from above orbital plane
View from above satellite
View from above satellite

Ground track
Ground track

The orbit data is extracted from the following two-line orbital elements,

1 15592U 85020A   17051.64346206  .00001829  00000-0  65451-4 0  9997
2 15592  82.5358  76.0493 0012532 224.3909 135.6327 15.28062124746494
Epoch (UTC): 20 February 2017 15:26:35
Eccentricity: 0.0012532
inclination: 82.5358°
perigee height: 473 km
apogee height: 490 km
right ascension of ascending node: 76.0493°
argument of perigee: 224.3909°
revolutions per day: 15.28062124
mean anomaly at epoch: 135.6327°
orbit number at epoch: 74649

The dashed part of the orbit path shows where the satellite is in the earth's shadow,  

DLR